Dewpoint
52 52 52 50 51 51 50 51 51 52 52 51 52 51 49 47 47 47 49 55 54 57 56 55 55 53 50 48 47 45 43 41 40 36 36 37 38 38 37 35 41 42 44
51 51 51 50 50 50 50 50 51 51 51 51 51 49 49 48 49 49 51 55 58 57 57 55 55 53 50 49 48 45 41 38 39 35 38 35 39 39 38 37 35 35 41
50 50 50 50 49 49 49 50 50 50 49 49 47 47 48 50 49 50 51 55 58 58 58 57 55 53 51 50 48 45 42 39 39 40 37 39 38 38 39 39 38 35 35
50 50 49 49 49 48 49 49 50 49 49 48 46 45 46 46 48 50 51 54 57 58 57 57 56 53 52 51 50 46 42 40 39 41 43 42 41 37 36 37 39 38 35
49 50 50 49 49 46 46 46 48 47 47 48 46 45 45 46 52 50 50 54 56 57 56 56 56 54 53 52 51 47 43 43 43 45 43 43 43 40 40 39 37 37 37
48 49 50 50 48 47 45 45 44 44 49 48 48 48 48 51 53 51 50 52 55 57 57 56 57 55 55 54 52 48 45 46 46 45 44 44 43 43 42 40 39 37 36
48 48 50 50 48 47 47 46 47 47 50 51 50 50 52 54 52 51 51 52 55 56 57 57 57 56 54 53 52 49 48 47 46 45 45 46 46 46 44 42 41 37 32
47 48 48 50 50 48 48 48 49 50 50 52 51 51 52 53 54 52 50 55 56 57 58 58 57 56 53 51 51 49 48 47 47 46 46 47 47 47 44 40 38 34 30
42 46 47 49 50 51 50 49 50 51 51 51 52 52 53 54 54 53 53 55 57 57 58 57 56 54 52 51 50 48 47 47 47 47 47 46 47 47 45 39 36 34 32
41 42 46 48 49 50 52 52 51 51 51 52 53 53 53 54 55 55 55 56 56 56 56 55 53 52 51 50 49 48 47 46 46 46 45 45 46 44 41 41 40 37 35
39 41 42 46 47 49 50 52 52 52 52 53 53 53 53 54 55 56 56 56 56 56 55 53 51 50 49 49 48 47 46 46 45 45 45 44 42 42 42 41 41 40 36
32 38 41 43 45 46 48 50 52 53 53 54 54 55 56 57 57 58 57 57 57 57 56 53 52 50 48 47 46 46 46 45 43 43 43 42 42 40 41 41 40 39 37
35 37 39 41 43 44 45 46 50 52 53 55 56 57 57 58 58 59 58 58 57 57 53 53 51 49 48 47 45 45 45 44 43 43 42 41 41 39 39 40 40 37 36
36 37 39 40 42 45 47 46 49 52 53 54 54 55 57 58 58 58 57 57 55 53 52 50 49 48 46 45 44 44 43 43 43 42 41 41 38 38 39 39 37 36 35
29 38 39 41 46 51 53 53 50 52 54 54 54 52 56 58 57 55 54 53 52 51 50 49 47 45 45 44 43 43 43 42 42 42 40 39 39 39 39 38 38 37 37
27 34 41 43 49 53 54 55 55 57 57 57 57 57 56 55 53 51 50 49 48 47 46 45 44 44 43 43 43 43 42 41 41 39 39 38 38 39 36 32 31 31 31
27 29 41 45 51 53 53 54 55 55 55 55 55 54 53 52 50 49 47 45 44 43 43 43 43 42 42 42 42 42 41 39 38 37 36 38 36 33 30 29 28 27 27
29 35 43 48 52 53 52 51 52 52 51 51 50 50 49 48 48 45 43 41 41 40 40 40 40 39 39 40 40 38 37 36 37 37 33 30 27 30 27 24 22 21 20
33 41 48 51 51 50 48 49 48 47 47 47 46 45 44 43 42 41 40 38 38 37 38 38 38 37 38 38 37 36 36 34 30 27 26 25 24 26 25 21 19 20 21
43 47 49 49 48 47 46 46 45 45 44 43 41 40 39 39 38 38 37 37 37 37 37 37 37 37 37 37 37 36 31 27 23 22 21 22 23 23 20 20 22 22 23
46 46 47 48 45 45 45 44 43 42 41 40 39 39 39 38 37 37 37 37 37 36 36 34 31 29 29 28 27 25 23 21 19 17 18 21 20 19 21 24 23 22 20
43 44 44 43 41 42 42 41 41 40 40 40 39 39 39 39 38 38 38 37 36 34 32 29 26 25 24 24 23 22 21 19 16 18 20 19 19 21 23 22 18 17 18
41 41 41 40 39 40 40 39 39 40 40 39 39 39 39 38 38 37 37 35 33 31 29 27 24 22 21 20 19 19 18 18 18 19 18 19 20 21 21 17 16 16 18
39 39 39 38 38 38 39 39 39 39 39 38 37 36 32 30 29 28 31 30 28 28 29 26 24 21 19 18 18 17 18 18 18 17 18 18 19 19 17 17 15 16 15
38 38 38 38 38 38 38 38 38 37 34 31 27 24 25 24 20 19 20 22 23 24 24 24 24 20 19 17 17 16 17 17 18 17 17 17 14 13 13 14 14 14 13
38 38 37 37 36 35 34 33 32 30 27 24 23 22 22 20 16 16 19 21 21 22 22 22 20 20 18 17 16 15 16 16 15 16 14 11 10 11 12 12 12 11 11
Wind_Speed
14 15 15 17 17 16 18 19 17 15 17 19 18 13 14 9 8 10 12 13 15 15 17 15 14 15 18 20 20 11 12 8 10 8 4 5 5 7 7 14 16 16 16
17 17 18 17 20 23 21 22 22 20 19 18 16 12 15 9 12 11 15 17 16 18 18 18 17 18 18 19 18 14 8 5 12 7 3 4 4 6 10 9 13 17 15
25 21 23 23 21 23 24 24 24 23 22 18 13 9 11 8 15 16 17 17 16 16 18 18 17 18 18 19 20 18 17 12 6 4 6 3 7 2 1 11 11 14 16
26 24 26 26 26 26 21 21 22 22 21 21 18 18 20 20 21 19 18 17 20 20 21 20 20 19 17 18 18 15 13 15 12 2 3 6 7 7 4 3 7 13 15
33 32 31 30 30 26 26 23 23 24 23 20 22 20 21 20 16 15 19 19 16 20 20 19 19 19 18 18 18 17 18 16 16 15 9 3 3 3 4 7 8 4 11
34 34 34 28 29 25 25 25 27 29 26 26 27 27 27 23 19 18 20 20 17 15 18 18 18 17 19 18 18 17 21 17 14 14 11 9 8 9 6 8 9 10 12
32 32 31 30 28 31 32 30 32 33 31 30 31 32 30 25 26 24 23 20 17 16 18 19 18 19 18 18 17 20 18 19 20 19 16 12 11 5 6 7 8 10 6
31 33 35 35 34 36 35 34 34 33 34 35 35 32 31 26 26 27 21 21 22 19 19 21 18 17 15 16 18 19 18 18 17 18 14 13 10 8 7 5 7 8 9
30 34 33 33 33 35 38 39 36 37 38 40 35 35 32 33 27 26 20 20 21 18 16 18 16 16 16 16 17 15 17 16 14 15 15 11 7 6 6 5 3 7 9
29 30 30 32 33 35 37 37 38 40 42 33 29 30 31 27 28 20 23 18 11 11 11 12 15 20 20 16 13 12 12 15 12 12 13 9 7 6 6 2 3 6 9
26 26 27 30 32 32 32 35 36 35 32 31 31 34 29 28 18 14 11 10 13 5 8 13 12 15 16 16 16 14 15 16 15 11 12 8 7 7 4 1 5 10 11
24 27 25 27 29 30 28 30 32 32 34 32 20 11 8 12 14 11 16 19 11 10 22 17 17 17 16 16 17 17 15 17 16 14 11 12 8 5 2 3 7 11 12
14 16 22 25 26 27 28 29 30 35 33 19 21 21 22 24 30 27 23 22 19 23 17 18 19 17 16 16 13 14 15 16 15 14 14 13 8 3 1 6 9 10 11
20 23 22 24 22 18 20 26 29 32 25 25 23 25 23 24 23 20 20 21 17 18 18 16 15 15 15 15 15 14 14 12 13 15 14 12 8 4 1 5 9 10 13
18 20 21 18 18 18 13 15 25 24 22 25 25 27 17 16 13 17 19 17 15 13 12 14 12 14 15 15 16 15 15 16 14 12 12 9 4 2 3 6 9 11 11
21 24 22 18 19 20 19 17 17 14 16 17 15 14 16 18 18 17 19 18 15 14 14 15 17 17 12 18 17 16 15 13 15 14 8 3 2 8 9 11 9 7 7
25 23 26 24 22 22 22 21 19 19 20 20 18 18 19 18 16 15 16 16 16 15 14 13 15 14 13 18 18 16 14 14 12 9 3 3 8 8 7 8 8 8 7
24 23 24 21 19 19 18 20 18 18 22 20 18 18 18 18 18 18 19 19 16 17 16 15 15 15 11 18 19 18 15 13 9 8 8 8 5 7 7 7 9 9 10
25 23 22 20 20 23 22 23 21 19 19 19 19 18 20 20 20 20 18 17 18 17 16 15 16 16 15 20 20 17 13 13 11 9 9 7 6 6 9 9 11 11 11
21 23 19 20 22 20 21 24 21 20 20 19 19 19 19 20 20 20 20 15 18 17 15 14 13 15 13 13 13 13 13 11 7 7 8 9 7 9 11 9 9 12 13
24 20 21 24 23 21 22 22 21 20 19 20 21 20 19 21 21 19 18 19 19 18 17 18 16 17 15 16 18 14 12 9 7 6 6 6 8 10 10 9 7 9 13
21 21 24 22 19 21 24 22 21 17 20 21 21 20 19 17 17 20 17 17 19 21 18 19 17 15 15 17 17 17 14 9 7 4 3 5 9 8 8 5 10 13 12
23 19 23 22 16 17 22 23 16 19 20 20 19 18 16 15 14 17 17 16 16 18 17 17 17 14 12 12 14 13 12 9 6 3 3 5 7 7 4 7 10 9 9
21 21 23 21 18 16 17 21 19 18 20 20 17 15 16 15 14 12 10 13 14 15 15 15 15 12 9 8 6 7 7 5 3 0 3 5 4 4 5 6 6 6 8
18 19 21 20 18 19 20 19 21 22 21 20 17 17 16 18 18 18 14 14 12 9 14 11 12 13 8 6 6 5 3 2 0 1 2 5 5 5 5 4 5 7 8
19 19 19 21 17 18 19 18 18 23 23 21 18 17 17 16 16 17 18 20 18 19 17 13 13 10 11 8 6 4 3 5 6 5 5 5 5 5 5 5 7 7 10
Wind_Direction
178 172 171 172 167 175 183 181 183 183 169 179 187 188 210 210 236 232 215 225 226 214 202 194 192 180 179 185 188 179 187 195 175 152 196 228 243 233 211 185 193 195 195
168 169 181 184 180 180 190 187 187 185 191 185 189 190 197 212 221 229 242 237 223 203 201 199 199 190 196 192 186 178 170 169 172 168 109 217 257 246 227 220 195 205 200
187 180 183 192 189 194 192 191 189 186 191 191 188 193 191 219 223 230 239 237 219 204 204 208 204 200 196 196 196 191 182 177 190 192 162 169 228 294 230 229 228 218 207
192 189 187 190 194 198 196 193 195 197 194 193 197 204 201 206 217 225 226 223 215 211 210 206 205 204 200 202 199 189 185 173 176 127 266 173 164 199 243 256 242 229 226
186 189 195 198 192 187 192 196 196 203 205 201 205 208 217 221 229 229 228 230 218 213 210 204 204 205 204 206 196 186 184 178 171 181 189 194 165 173 154 220 247 252 247
194 194 194 190 193 191 194 195 197 206 208 207 209 210 214 218 223 231 226 228 226 218 211 206 202 205 206 203 193 187 178 174 173 186 175 181 184 192 186 210 239 258 268
192 195 193 193 191 192 194 198 201 205 208 209 212 214 216 215 221 225 225 221 218 215 207 195 202 212 209 200 183 184 183 181 188 191 194 195 196 160 198 215 257 257 259
194 197 195 192 193 194 195 199 202 207 208 210 214 216 220 220 225 227 221 217 219 216 195 201 204 206 198 196 186 183 184 177 181 191 186 188 200 197 212 212 232 269 246
199 202 200 197 196 197 199 199 201 207 209 212 214 216 217 219 221 223 210 208 211 213 194 186 178 188 188 195 180 177 180 175 176 180 178 185 196 207 234 249 267 241 268
202 205 202 202 200 202 203 202 206 209 212 214 216 221 223 221 222 217 208 204 171 141 163 199 190 180 187 176 174 173 170 171 173 173 177 187 194 205 177 166 266 267 277
205 204 204 206 206 206 203 204 208 214 215 211 215 218 218 224 212 199 184 153 146 146 233 199 180 167 170 177 183 176 170 176 177 173 186 186 168 162 180 214 321 296 269
220 202 197 200 205 209 210 207 209 212 216 213 216 201 211 186 163 163 171 181 171 211 227 190 189 186 177 177 183 178 176 175 173 177 174 166 161 157 35 315 290 274 277
198 185 188 199 201 209 212 209 209 213 214 182 175 173 189 195 189 189 189 186 191 212 196 189 188 179 181 178 170 164 167 176 174 171 165 165 166 175 291 306 298 294 293
190 187 183 175 177 185 198 205 207 213 194 187 188 198 202 201 215 207 187 188 183 184 182 180 173 171 163 163 161 164 169 162 163 166 167 171 168 167 358 290 291 293 296
200 216 201 183 165 168 169 198 204 207 185 185 195 210 213 203 193 154 156 161 166 163 160 161 155 151 157 160 159 164 163 165 166 163 173 180 173 114 309 314 314 313 306
220 212 208 193 167 164 156 161 172 170 166 182 192 174 169 160 157 147 144 146 144 146 148 155 151 154 157 160 161 159 165 158 164 171 166 135 1 23 42 54 34 23 354
230 211 204 197 176 164 155 158 150 132 132 148 143 144 143 141 138 134 132 137 140 142 142 141 146 151 152 165 164 156 148 154 154 148 134 40 53 79 24 8 342 337 327
223 204 195 184 170 149 141 134 134 133 129 132 132 135 137 136 135 138 143 141 142 142 145 147 151 150 154 157 148 133 127 124 115 105 99 100 65 48 33 353 340 333 324
202 189 184 165 147 145 139 135 133 132 132 136 140 138 136 135 138 137 139 135 132 136 138 142 143 142 142 141 133 127 120 118 112 94 78 78 66 22 4 351 335 318 311
177 164 147 139 142 143 136 134 135 135 138 137 131 131 132 133 134 136 138 135 135 136 135 130 120 112 114 120 125 127 124 120 114 84 69 46 30 4 341 330 327 324 320
154 143 147 154 152 144 139 139 140 146 138 129 127 129 132 136 138 137 135 136 132 125 116 101 89 87 93 90 96 96 103 110 91 61 34 23 352 331 333 338 337 323 338
149 149 149 150 149 146 141 142 144 137 129 128 128 129 130 132 135 137 138 135 131 122 120 115 100 90 88 88 86 88 91 85 87 68 34 337 329 337 343 354 341 340 339
158 149 147 145 144 141 140 140 137 132 125 121 123 123 119 123 127 132 134 134 131 130 132 130 126 118 99 92 92 95 93 84 96 99 345 334 338 347 8 351 349 347 335
153 143 139 140 136 128 123 128 127 120 117 116 112 106 105 96 91 90 108 129 132 132 134 135 134 129 120 111 104 97 104 99 128 107 341 343 346 26 14 357 348 343 336
140 138 136 133 131 125 120 122 124 121 116 110 105 100 95 95 88 70 70 82 60 106 128 124 136 142 132 103 87 81 80 70 45 325 38 58 50 29 2 347 342 340 339
124 118 117 118 114 110 111 113 116 118 116 110 106 106 104 99 99 99 84 66 79 84 91 100 111 92 113 104 65 57 48 34 53 79 76 65 36 20 356 350 341 341 337